www.pogodaiklimat.ru

Погода и климат >> Архив погоды >> Иран >> Феса


ПОГОДА в Фесе

  • Прогноз погоды в Фесе
  • Монитор погоды в Фесе

АРХИВ ПОГОДЫ в Фесе

Время (UTC), дата Ветер
(напр.,м/с)
 
Видим.   Явления Облачность Т
(С)
Тd
(С)
f
(%)
Тe
(С)
Тes
(С)
Комфортность P
(гПа)
Po
(гПа)
Тmin
(С)
Tmax
(С)
R
(мм)
R24
(мм)
S
(см)
06 13.09 штиль 0 10 км ясно +31.0 +1.2 15 +28 +44 жарко 1000.1 869.1
09 13.09 З 7 10 км ясно +35.0 -3.8 8 +31 +36 жарко 999.3 867.8 666
12 13.09 ЮЗ 8 10 км ясно +35.8 -2.2 9 +32 +33 жарко 997.5 865.7
15 13.09 ЮЗ 4 10 км ясно +31.4 -0.1 13 +28 +28 жарко 999.4 866.3 +36.0 666
18 13.09 СВ 2 10 км ясно +24.8 0.0 20 +23 +23 комфорт 999.8 868.0
21 13.09 ЮВ 2 10 км ясно +19.0 +1.8 32 +20 +20 999.8 867.7
00 14.09 С 2 10 км ясно +17.6 0.0 30 +18 +18 999.6 867.3
03 14.09 СЗ 2 10 км ясно +16.8 -0.1 32 +17 +18 1001.9 868.2 +15.8 666
06 14.09 штиль 0 10 км ясно +29.0 +1.1 17 +27 +42 жарко 1002.4 869.9
09 14.09 СВ 4 10 км ясно +34.8 -1.4 10 +31 +43 жарко 1000.5 868.2 666
12 14.09 З 5 10 км ясно +36.2 +1.6 11 +33 +36 жарко 998.9 866.9
15 14.09 ЮЗ 3 10 км ясно +31.4 +2.9 16 +29 +29 жарко 1000.6 867.2 +36.2
18 14.09 штиль 0 10 км ясно +24.6 +1.7 22 +23 +23 комфорт 1001.1 868.7
21 14.09 штиль 0 10 км ясно +21.2 +0.5 25 +21 +21 комфорт 1000.6 868.7
00 15.09 СЗ 2 10 км ясно +19.0 -0.2 27 +20 +20 1000.8 868.7
03 15.09 штиль 0 10 км ясно +17.8 +1.0 32 +18 +18 1003.5 869.9 +17.8
06 15.09 штиль 0 10 км ясно +31.6 +3.2 17 +29 +44 жарко 1003.1 871.0
09 15.09 З 3 10 км ясно +35.6 +1.5 12 +32 +46 жарко 1001.5 869.8
12 15.09 Ю 5 10 км ясно +36.0 +1.8 12 +33 +36 жарко 1000.1 868.2
15 15.09 ЮЗ 3 10 км 4/0
[Ci fib]
+32.2 +3.2 16 +30 +30 жарко 1001.7 868.6 +36.6
18 15.09 С 3 10 км 1/0
[Ci fib]
+25.4 +1.9 22 +24 +24 комфорт 1001.8 870.0
21 15.09 СЗ 4 10 км ясно +21.2 +2.5 29 +21 +21 комфорт 1001.8 870.0
00 16.09 З 2 10 км ясно +18.6 +2.3 34 +19 +19 1002.1 869.8
03 16.09 З 2 10 км ясно +19.6 +0.9 29 +20 +21 1004.3 871.1 +17.8
06 16.09 штиль 0 10 км ясно +32.4 +2.9 15 +30 +45 жарко 1003.4 871.7
09 16.09 ЮВ 3 10 км ясно +36.4 +0.4 10 +33 +47 жарко 1001.6 870.0 666
12 16.09 СВ 3 10 км ясно +37.4 +0.6 10 +34 +39 очень
жарко
999.6 867.9
15 16.09 СВ 2 10 км 3/0
[Ci fib]
+33.2 +2.6 14 +30 +30 жарко 1000.1 867.7 +37.6 666
18 16.09 СЗ 3 10 км ясно +27.0 +1.1 19 +25 +25 комфорт 999.9 868.9
21 16.09 СЗ 3 10 км ясно +22.8 -1.3 20 +22 +22 комфорт 1000.8 869.5
00 17.09 СЗ 2 10 км 3/0
[Ci fib]
+20.8 -1.7 22 +21 +21 комфорт 1000.5 869.1
03 17.09 З 3 10 км 6/0
[Ci sp]
+20.0 -1.1 24 +20 +21 1003.2 870.4 +19.8 666
06 17.09 ЮВ 2 10 км 5/0
[Ci fib]
+31.8 +1.5 14 +29 +39 жарко 1002.7 871.2
09 17.09 С 8 10 км 4/0
[Ci fib]
+35.4 -3.6 8 +31 +34 жарко 1000.8 869.4
12 17.09 СВ 3 10 км 3/0
[Ci fib]
+36.6 -3.7 8 +33 +37 жарко 998.7 867.4
15 17.09 штиль 0 10 км 3/0
[Ci fib]
+32.6 +2.7 15 +30 +30 жарко 999.7 867.4 +36.8 666
18 17.09 СВ 2 10 км ясно +27.4 +0.5 17 +25 +25 комфорт 999.5 868.4
21 17.09 штиль 0 10 км ясно +25.4 +2.6 23 +24 +24 комфорт 999.2 868.6
00 18.09 С 2 10 км ясно +22.4 -0.6 22 +22 +22 комфорт 999.6 868.4
03 18.09 СЗ 2 10 км 4/0
[Ci fib]
+21.0 +0.1 25 +22 +22 комфорт 1002.7 870.1 +19.8 666
06 18.09 ЮВ 4 10 км 3/0
[Ci fib]
+32.2 +0.1 13 +29 +36 жарко 1002.9 871.5
09 18.09 штиль 0 10 км 3/0
[Ci fib]
+35.2 -3.2 8 +31 +52 опасность
солнечного
удара
1000.9 869.9 666
12 18.09 ЮВ 3 10 км 4/0
[Ci fib]
+36.8 -1.1 9 +33 +38 жарко 999.0 868.0
15 18.09 ЮВ 2 10 км 5/0
[Ci fib]
+32.6 +4.1 17 +30 +30 жарко 1000.8 868.5 +37.2 666
18 18.09 С 2 10 км 4/0
[Ci fib]
+24.4 -0.9 19 +23 +23 комфорт 1001.7 869.8
21 18.09 СЗ 3 10 км 4/0
[Ci fib]
+21.8 -0.4 23 +21 +21 комфорт 1001.1 869.4
00 19.09 СЗ 2 10 км 3/0
[Ci fib]
+19.4 -1.6 24 +20 +20 1001.1 869.2
03 19.09 штиль 0 10 км ясно +17.6 -1.5 27 +18 +18 1004.1 870.5 +16.6 666
06 19.09 ЮВ 3 10 км ясно +31.6 +0.2 13 +28 +38 жарко 1003.7 871.5
09 19.09 Ю 4 10 км ясно +36.2 -1.1 9 +32 +43 жарко 1001.5 870.0
12 19.09 Ю 4 10 км ясно +37.4 -1.2 9 +34 +38 очень
жарко
999.5 867.9
15 19.09 ЮЗ 3 10 км ясно +32.2 +1.0 14 +29 +29 жарко 1001.3 868.2 +37.6 666
18 19.09 С 3 10 км ясно +25.6 +1.7 21 +24 +24 комфорт 1000.8 869.2
21 19.09 штиль 0 10 км ясно +20.8 +2.4 30 +21 +21 комфорт 1000.4 868.8
00 20.09 С 4 10 км ясно +19.4 +1.9 31 +20 +20 1000.3 868.7
03 20.09 СЗ 2 10 км ясно +18.4 +1.4 32 +19 +19 1002.9 869.7 +17.2

 

Местоположение метеостанции Феса (Иран): широта 28.97 долгота 53.68 высота над уровнем моря 1288 м.

В архиве по умолчанию представлена погода в Фесе за последнюю неделю. Архивные данные за месяц целиком и за предыдущие месяцы, начиная с января 2011 года, Вы можете получить, выбрав интересующий диапазон дат из раскрывающегося списка и нажав кнопку "Ввод!".


*Определитесь, кто Вы:
робот инопланетянин человек

Внимание! Время в таблицах - всемирное. Для получения местного времени необходимо прибавить поправку, которая равна 3.5 ч.

Смотрите также архив погоды в соседних городах и на ближайших метеорологических станциях:

Погода в Ширазе (Иран) (128 км)
Погода в Сирджане (Иран) (206 км)
Погода в Бендер-Дейере (Иран) (213 км)
Погода в Абаде (Иран) (264 км)
Погода в Бушире (Иран) (275 км)
Погода на Острове Киш (Иран) (276 км)
Погода в Ясудже (Иран) (277 км)
Погода в Бушир аэропорту (Иран) (277 км)
Погода в Бафте (Иран) (282 км)
Погода в Бендер-Ленге (Иран) (289 км)

Пояснения к столбцам:

Ветер - указаны скорость ветра в м/с - средняя за 10 мин, порывы в срок и между сроками (в фигурных скобках) и направление, откуда дует ветер: С - северный, СВ - северо-восточный, В - восточный, ЮВ - юго-восточный, Ю - южный, ЮЗ - юго-западный, З - западный, СЗ - северо-западный.
Видимость - горизонтальная дальность видимости в метрах или километрах. При видимости от 1 до 10 км при отсутствии осадков обычно наблюдается дымка, при ухудшении видимости до 1 км и менее - туман. В сухую погоду видимость может ухудшаться дымом, пылью или мглою.
Явления - указаны атмосферные явления, наблюдавшиеся в срок или в последний час перед сроком; фигурными скобками обозначены явления, наблюдавшиеся между сроками (за 1-3 часа до срока); квадратными скобками обозначены град или гололедные отложения с указанием их диаметра в мм.
Облачность - указаны через наклонную черту общая и нижняя облачность в баллах и высота нижней границы облаков в метрах; квадратными скобками обозначены формы облаков: Ci - перистые, Cs - перисто-слоистые, Cc - перисто-кучевые, Ac - высококучевые, As - высокослоистые, Sc - слоисто-кучевые, Ns - слоисто-дождевые, Cu - кучевые, Cb - кучево-дождевые. Подробнее классификацию облаков см. в Атласе облаков (PDF).
T - Температура воздуха - температура, измеренная на высоте 2 м над землей.
Td - Температура точки росы - температура, при понижении до которой содержащийся в воздухе водяной пар достигнет насыщения.
f - Относительная влажность воздуха - влажноcть воздуха, измеренная на высоте 2 м над землей.
Te - Эффективная температура - температура, которую ощущает одетый по сезону человек в тени. Характеристика душности погоды. При расчете учитывается влияние влажности воздуха и скорости ветра на теплоощущения человека.
Tes - Эффективная температура на солнце - температура, которую ощущает человек, с поправкой на солнечный нагрев. Характеристика знойности погоды. Зависит от высоты солнца над горизонтом, облачности и скорости ветра. Ночью, в пасмурную погоду, а также при ветре 12 м/с и более поправка равна нулю.
P - Атмосферное давление - приведенное к уровню моря атмосферное давление.
Po - Атмосферное давление - измеренное на уровне метеостанции атмосферное давление.
Tmin - Минимальная температура - минимум температуры воздуха на высоте 2 м над землей.
Tmax - Максимальная температура - максимум температуры воздуха на высоте 2 м над землей.
R - Количество осадков - Количество выпавших осадков за период времени, мм. При наведении курсора мыши на число - период времени, за который выпало указанное количество осадков.
R24 - Количество осадков - Количество выпавших осадков за 24 часа, мм.
S - Снежный покров - Высота снежного покрова, см. При наведении курсора мыши на число - состояние снежного покрова и степень покрытия местности в баллах.